Flag for Sierra Leone Weather past 2 weeks in Freetown, Sierra Leone

Now
79 °F

Partly sunny.


Feels Like: 83 °F
Forecast: 75 / 82 °F
Wind: 2 mph from North

Location: Conakry / Gbessia

Current Time: Sep 19, 2014 at 12:17:20 PM

Latest Report: Sep 19, 2014 at 11:00 AM


Visibility: N/A

Pressure: 29.95 "Hg

Humidity: 94%

Dew point: 77 °F

Location of FreetownLocation

Historic Weather in Freetown — Graph

°F

Freetown temperature yesterday

Maximum temperature yesterday: 82 °F (at 2:00 PM)
Minimum temperature yesterday: 75 °F (at 12:00 AM)
Average temperature yesterday: 79 °F

Past Weeks' High & Low Weather Summary

 TemperatureHumidityPressure
High86 °F (Sep 10, 3:00 PM)100% (Sep 6, 7:00 PM)30.01 "Hg (Sep 6, 7:00 PM)
Low72 °F (Sep 13, 9:00 PM)66% (Sep 10, 3:00 PM)29.80 "Hg (Sep 6, 4:00 PM)
Average79 °F89%29.91 "Hg
* Reported Sep 4 11:00 AM — Sep 19 11:00 AM, Freetown, Weather by CustomWeather, © 2014

Note: Actual official high and low records may vary slightly from our data, if they occured in-between our weather recording intervals... More about our weather records

Advertising

Freetown weather history for previous 24 hours

 ConditionsComfort  
Time TempWeatherWind HumidityBarometerVisibility
11:00 AM
Sep 19
79 °FPartly sunny.2 mph94%29.95 "HgN/A
10:00 AM81 °FPartly sunny.2 mph84%29.95 "HgN/A
9:00 AM79 °FPartly sunny.2 mph89%29.95 "HgN/A
8:00 AM77 °FLight rain. Partly sunny.2 mph94%29.92 "Hg5 mi
7:00 AM77 °FPartly sunny.2 mph94%29.92 "HgN/A
6:00 AM77 °FPassing clouds.2 mph94%29.89 "HgN/A
5:00 AM77 °FPassing clouds.5 mph94%29.89 "HgN/A
3:00 AM75 °FPartly cloudy.7 mph100%29.86 "HgN/A
2:00 AM75 °FPassing clouds.7 mph100%29.89 "HgN/A
1:00 AM75 °FLight rain. Passing clouds.5 mph100%29.95 "Hg5 mi
12:00 AM75 °FLight rain. Passing clouds.No wind94%29.95 "Hg5 mi
11:00 PM
Sep 18
77 °FLight rain. Partly cloudy.5 mph94%29.95 "Hg5 mi
10:00 PM77 °FLight rain. Partly cloudy.7 mph94%29.92 "Hg5 mi
9:00 PM75 °FLight rain. Passing clouds.9 mph94%29.92 "Hg3 mi
8:00 PM75 °FLight rain. Passing clouds.7 mph100%29.92 "Hg3 mi
7:00 PM77 °FLight rain. Passing clouds.9 mph94%29.89 "Hg5 mi
6:00 PM81 °FPartly sunny.9 mph84%29.89 "HgN/A
5:00 PM81 °FPartly sunny.12 mph84%29.86 "HgN/A
4:00 PM81 °FPartly sunny.9 mph84%29.86 "HgN/A
3:00 PM81 °FPartly sunny.12 mph84%29.86 "HgN/A
2:00 PM82 °FPartly sunny.12 mph79%29.89 "HgN/A
1:00 PM81 °FPartly sunny.9 mph84%29.92 "HgN/A
12:00 PM81 °FPartly sunny.14 mph84%29.95 "HgN/A
Weather by CustomWeather, © 2014

See weather overviewHow to use our weather pages